Tracking 28341 objects as of 5-Dec-2023
HD Live streaming from Space Station
objects crossing your sky now

STARLINK-4512

Track STARLINK-4512 now!
10-day predictions
STARLINK-4512 is classified as:


NORAD ID: 53398
Int'l Code: 2022-097L
Perigee: 545.9 km
Apogee: 547.9 km
Inclination: 53.2 °
Period: 95.4 minutes
Semi major axis: 6917 km
RCS: Unknown
Launch date: August 10, 2022
Source: United States (US)
Launch site: AIR FORCE EASTERN TEST RANGE (AFETR)
Your satellite tracking list
Your tracking list is empty




NASA's NSSDC Master Catalog

Two Line Element Set (TLE):
1 53398U 22097L   23338.73181866  .00003382  00000-0  23052-3 0  9998
2 53398  53.2169 231.9892 0001387  96.6516 263.4634 15.08833613 73828
Source of the keplerian elements: AFSPC